Track STARLINK-2271 now! 10-day predictions STARLINK-2271 is classified as:
1 48008U 21024AH 21110.91667824 -.00061514 00000-0 -43582-3 0 9991 2 48008 53.0486 67.2656 0000910 85.1997 175.6794 15.73263635 1774